Regional Weather Roundup
Issued by NWS

Home | Current Version | Previous Version | Graphics & Text | Print | Product List | Glossary On
Versions: 1 2 3 4 5 6 7 8 9 10 11 12 13 14 15 16 17 18 19 20 21 22 23 24 25 26 27 28 29 30 31 32 33 34 35 36 37 38 39 40 41 42 43 44 45 46 47 48 49 50
230
ASUS43 KMPX 280301
RWRMN
WEATHER ROUNDUP FOR MINNESOTA
NATIONAL WEATHER SERVICE TWIN CITIES/CHANHASSEN MN
1000 PM CDT TUE SEP 27 2016


NOTE: "FAIR" INDICATES FEW OR NO CLOUDS BELOW 12,000 FEET WITH NO
SIGNIFICANT WEATHER AND/OR OBSTRUCTIONS TO VISIBILITY. N/A MEANS
CURRENT SKY AND/OR WEATHER CONDITIONS ARE NOT AVAILABLE.

MNZ060>063-068>070-280400-
   Twin Cities Metro

CITY           SKY/WX    TMP DP  RH WIND       PRES   REMARKS
TWIN CITIES    MOCLDY    50  46  86 N13       29.88R
ST PAUL        MOCLDY    49  46  90 NW10      29.88R
CRYSTAL        MOCLDY    49  45  86 N7        29.88R
BLAINE         MOCLDY    50  48  93 NW9       29.88R
LAKEVILLE      PTCLDY    46  46 100 N9        29.88R
EDEN PRAIRIE   CLOUDY    51  46  83 N8        29.87S
LAKEVILLE      PTCLDY    46  46 100 N9        29.88R
SOUTH ST PAUL  PTCLDY    49  46  88 N6        29.87S
LAKE ELMO      CLOUDY    48  46  93 NW8       29.88R
$$
MNZ001>005-007-008-013>017-022>024-027-028-280400-
   Northwest Minnesota

CITY           SKY/WX    TMP DP  RH WIND       PRES   REMARKS
BEMIDJI        MOCLDY    38  38  99 NW6       29.97R
HALLOCK        CLOUDY    48  46  93 NE7       30.02R
ROSEAU         CLOUDY    46  41  81 N6        30.00R
WARROAD        CLOUDY    45  43  93 VRB7      30.01R
THIEF RVR FALL   N/A     47  41  80 N7        30.01R
CROOKSTON      CLOUDY    50  43  76 NE5       30.01R
FOSSTON        CLOUDY    45  41  87 NW8       29.99R
DETROIT LAKES  CLOUDY    46  43  87 N6        29.99R
MOORHEAD       CLOUDY    52  45  76 NE13      29.98R
PARK RAPIDS    MOCLDY    47  41  80 N10       29.95R
MAHNOMEN       MOCLDY    44  41  90 N6        29.98R
$$
MNZ006-009>011-018-025>026-280400-
   North Central Minnesota

CITY           SKY/WX    TMP DP  RH WIND       PRES   REMARKS
BAUDETTE       CLOUDY    48  44  86 N7        29.98R
FLAG ISLAND    CLOUDY    52  45  76 N14       30.00R
INTL FALLS     CLOUDY    50  46  86 N7        29.95R
WASKISH        CLOUDY    46  45  93 N5        29.97R
BIG FORK       CLOUDY    48  45  87 CALM      29.94R
GRAND RAPIDS   CLOUDY    48  45  89 N15       29.93R
ORR            CLOUDY    48  45  87 CALM      29.90R
COOK           CLOUDY    48  46  93 N5        29.91R
WALKER         MOCLDY    42  41  97 NW5       29.96R
$$
MNZ012-019>021-037-280400-
   Northeast Minnesota

CITY           SKY/WX    TMP DP  RH WIND       PRES   REMARKS
DULUTH         LGT RAIN  49  47  93 N10       29.85R
ELY            CLOUDY    48  46  93 N5        29.87R
HIBBING        CLOUDY    48  45  89 N12       29.90R
EVELETH        CLOUDY    50  46  86 N6G16     29.90R
DULUTH HARBOR  CLOUDY    54  48  82 N10       29.86R
TWO HARBORS    CLOUDY    54  48  82 N9        29.81S
SILVER BAY     CLOUDY    52  48  87 N9G17     29.81R
GRAND MARAIS     N/A     55  49  80 VRB7G23   29.79R
G MARAIS ARPRT CLOUDY    48  45  87 N12       29.82R
$$
MNZ029>031-032-039>041-046>048-054>057-064-280400-
   West Central Minnesota

CITY           SKY/WX    TMP DP  RH WIND       PRES   REMARKS
FERGUS FALLS   CLOUDY    52  45  76 NE10      29.98R
MORRIS         CLOUDY    54  43  66 N12       29.93R
ALEXANDRIA     CLOUDY    49  47  93 N10       29.95R
ELBOW LAKE     CLOUDY    51  44  76 NE14G20   29.95R
GLENWOOD       CLOUDY    50  45  81 N16       29.94R
ORTONVILLE     CLEAR     52  43  71 N12       29.94R
MADISON        CLOUDY    55  45  67 N7        29.94R
WILLMAR        CLOUDY    54  45  71 N15       29.93R
$$
MNZ033>034-036-042>043-049>051-058-059-280400-
   Central Minnesota

CITY           SKY/WX    TMP DP  RH WIND       PRES   REMARKS
ST CLOUD       PTCLDY    46  45  96 N6        29.91R
SAUK CENTRE    CLOUDY    47  44  89 N12       29.94R
PAYNESVILLE    CLOUDY    47  48 100 N7G16     29.93R
AITKIN         CLOUDY    48  43  81 NW8       29.90R
PINE RIVER     MOCLDY    46  45  93 N9        29.96S
BRAINERD       MOCLDY    47  44  90 N10       29.93R
STAPLES        CLOUDY    45  43  93 NW8       29.94R
LONG PRAIRIE   FAIR      45  41  87 NW6       29.94R
LITTLE FALLS   PTCLDY    45  41  87 NW3       29.93R
LITCHFIELD     MOCLDY    52  46  82 N16       29.92R
BUFFALO        MOCLDY    49  43  79 N12       29.91R
MAPLE LAKE     PTCLDY    49  46  88 N8        29.91R
HUTCHINSON     CLOUDY    49  46  87 N12G18    29.91R
$$
MNZ037-044-045-052-053-280400-
   East Central Minnesota

CITY           SKY/WX    TMP DP  RH WIND       PRES   REMARKS
PRINCETON      CLOUDY    48  46  93 NW5       29.90R
MORA           CLOUDY    45  41  87 N7        29.90S
CAMBRIDGE      CLOUDY    52  43  71 NW6       29.87R
MOOSE LAKE     CLOUDY    46  45  93 N8        29.86R
HINCKLEY       CLOUDY    46  45  93 NW6       29.88R
CLOQUET        CLOUDY    48  45  87 NW9G18    29.86R
MCGREGOR       CLOUDY    46  45  93 NW10      29.89S
$$
MNZ071>073-080-081-089-090-097-098-280400-
   Southwest Minnesota

CITY           SKY/WX    TMP DP  RH WIND       PRES   REMARKS
MONTEVIDEO     CLOUDY    54  45  71 NE7       29.94R
GRANITE FALLS  CLOUDY    56  45  67 N10       29.94R
CANBY          PTCLDY    48  39  72 W5        29.94R
MARSHALL       CLOUDY    55  42  61 NE9       29.92R
REDWOOD FALLS  CLOUDY    54  43  66 N5        29.91R
OLIVIA         CLOUDY    54  45  71 N12       29.91R
PIPESTONE      CLEAR     54  30  40 N6        29.91S
WINDOM         MOCLDY    55  43  62 N12G17    29.90R
WORTHINGTON    CLOUDY    53  36  52 N8        29.90R
JACKSON        CLOUDY    57  34  41 N10       29.89R
TRACY          CLOUDY    56  44  63 NE8       29.92R
$$
MNZ065>067-074>077-082>085-091>093-280400-
   South Central Minnesota

CITY           SKY/WX    TMP DP  RH WIND       PRES   REMARKS
MANKATO        CLOUDY    51  44  77 N14G22    29.89R
ST JAMES       CLOUDY    54  45  71 N6        29.91R
FAIRMONT       CLOUDY    54  43  66 NE8       29.89R
GLENCOE        PTCLDY    50  47  90 N9G16     29.90R
FARIBAULT      CLOUDY    50  46  87 NW8       29.88R
OWATONNA       MOCLDY    50  45  81 N10       29.87S
WASECA         CLOUDY    52  45  76 N10G17    29.89R
ALBERT LEA     CLOUDY    52  45  76 N10       29.86S
$$
MNZ078>079-086>088-094>096-280400-
   Southeast Minnesota

CITY           SKY/WX    TMP DP  RH WIND       PRES   REMARKS
ROCHESTER      CLOUDY    48  46  93 N13G18    29.85R
RED WING       MOCLDY    48  46  93 NW5       29.85R
DODGE CENTER   CLOUDY    48  46  93 NW9       29.85S
WINONA         CLOUDY    50  46  87 NW7       29.82S
AUSTIN         CLOUDY    48  45  87 N9        29.85R
PRESTON        CLOUDY    47  44  90 N9        29.84S
$$
ABBREVIATIONS USED IN REMARKS
   TC - TEMPERATURES IN CELSIUS
  WCI - WIND CHILL INDEX
   HX - HEAT INDEX
  VSB - VISIBILITY
$$




USA.gov is the U.S. government's official web portal to all federal, state and local government web resources and services.